Find Starlink 4340

NORAD ID: 53494 Int'l Des: 2022-099 Owner: SPXS Country: US Constellation: starlink operational
LEOCIRCULARRETROGRADESSO

リアルタイム位置

3D地球を読み込み中...

Starlink 4340について

説明を読み込み中...

次回通過

Passes for default location (London). Set your location on the main map for personalized predictions.

高度履歴

Loading altitude history...

軌道要素

1 53494U 22099AF 26106.57840398 .00000032 00000-0 64125-5 0 9994
2 53494 97.6021 228.6135 0000805 187.1052 173.0163 15.05646130201753
Epoch: Apr 16, 2026 • Age: 13 hours

現在のステータス

高度 564.0 km
速度 7.58 km/s
衛星直下点 -36.80°S, 7.58°W
打ち上げ日 Aug 12, 2022
運用期間 3.6 years
タイプ internet

技術仕様

分類 Payload
質量 300.00 kg
乾燥質量 275.00 kg
総質量 300.00 kg
長さ 0.20 m
直径 2.80 m
スパン 9.00 m
形状 Box + pan
製造者 SPXS
バスタイプ Starlink
フェーズステータス In Orbit
所有者/国 SPXS/US

Most Searched